Location: Fuglau
(48.6333°N, 15.5500°E)
Time: 19:48:40
(UTC+00:00)

STARLINK-80 - Pass Details

Date: 27 February 2020
Orbit: 489 x 494 km, 53.0° (Epoch: 03 April)

Event Time Altitude Azimuth Distance (km) Brightness Sun altitude
Rises 17:39:09 0° 293° (WNW) 2,585 8.4 -11.0°
Reaches altitude 10° 17:41:21 10° 297° (WNW) 1,700 7.2 -11.3°
Maximum altitude 17:45:11 65° 20° (NNE) 551 3.5 -12.0°
Enters shadow 17:47:42 20° 98° (E) 1,200 4.7 -12.4°
